Time,TemperatureF,DewpointF,PressureIn,WindDirection,WindDirectionDegrees,WindSpeedMPH,WindSpeedGustMPH,Humidity,HourlyPrecipIn,Conditions,Clouds,dailyrainin,SoftwareType,DateUTC
2013-01-11 00:00:00,37.9,36.1,30.01,South,191,1.0,4.0,93,0.00,RA,,0.00,WeatherDisplay:10.37,2013-01-11 00:00:00,
2013-01-11 00:30:00,37.9,36.1,30.01,South,186,2.0,7.0,93,0.00,CLR,,0.00,WeatherDisplay:10.37,2013-01-11 00:30:00,
2013-01-11 01:30:00,37.8,35.7,30.02,South,188,1.0,6.0,92,0.00,CLR,,0.00,WeatherDisplay:10.37,2013-01-11 01:30:00,
2013-01-11 02:00:00,37.8,35.7,30.02,South,174,1.0,6.0,92,0.00,CLR,,0.00,WeatherDisplay:10.37,2013-01-11 02:00:00,
2013-01-11 02:30:00,37.4,35.3,30.02,South,190,0.0,5.0,92,0.00,CLR,,0.00,WeatherDisplay:10.37,2013-01-11 02:30:00,
2013-01-11 03:00:00,37.0,35.2,30.02,South,181,0.0,3.0,93,0.00,CLR,,0.00,WeatherDisplay:10.37,2013-01-11 03:00:00,
2013-01-11 03:30:00,37.5,35.7,30.01,South,183,2.0,7.0,93,0.00,CLR,,0.00,WeatherDisplay:10.37,2013-01-11 03:30:00,
2013-01-11 04:00:00,37.5,35.7,30.00,South,179,1.0,6.0,93,0.00,CLR,,0.00,WeatherDisplay:10.37,2013-01-11 04:00:00,
2013-01-11 04:30:00,37.2,35.3,30.00,SSE,162,0.0,4.0,93,0.00,CLR,,0.00,WeatherDisplay:10.37,2013-01-11 04:30:00,
2013-01-11 05:30:00,36.2,34.4,30.00,South,178,0.0,4.0,93,0.00,CLR,,0.00,WeatherDisplay:10.37,2013-01-11 05:30:00,
2013-01-11 06:00:00,36.6,35.0,29.99,SSE,161,1.0,4.0,94,0.00,CLR,,0.00,WeatherDisplay:10.37,2013-01-11 06:00:00,
2013-01-11 06:30:00,37.0,35.2,29.98,SE,143,1.0,4.0,93,0.00,CLR,,0.00,WeatherDisplay:10.37,2013-01-11 06:30:00,
2013-01-11 07:00:00,37.3,35.5,29.97,SSE,155,2.0,6.0,93,0.00,CLR,,0.00,WeatherDisplay:10.37,2013-01-11 07:00:00,
2013-01-11 07:30:00,38.1,36.0,29.98,SSE,155,1.0,9.0,92,0.00,CLR,,0.00,WeatherDisplay:10.37,2013-01-11 07:30:00,
2013-01-11 08:00:00,38.7,36.3,29.98,SSW,194,0.0,6.0,91,0.00,CLR,,0.00,WeatherDisplay:10.37,2013-01-11 08:00:00,
2013-01-11 08:30:00,38.4,36.0,29.98,SSE,161,1.0,5.0,91,0.00,CLR,,0.00,WeatherDisplay:10.37,2013-01-11 08:30:00,
2013-01-11 09:00:00,39.9,37.2,29.98,SSE,153,2.0,7.0,90,0.00,BKN,,0.00,WeatherDisplay:10.37,2013-01-11 09:00:00,
2013-01-11 09:30:00,41.0,38.6,29.97,SSE,152,3.0,10.0,91,0.00,BKN,,0.00,WeatherDisplay:10.37,2013-01-11 09:30:00,
2013-01-11 10:00:00,41.7,39.0,29.95,SE,140,1.0,7.0,90,0.00,BKN,,0.00,WeatherDisplay:10.37,2013-01-11 10:00:00,
2013-01-11 10:30:00,43.0,40.3,29.95,SSE,165,2.0,7.0,90,0.00,BKN,,0.00,WeatherDisplay:10.37,2013-01-11 10:30:00,
2013-01-11 11:00:00,43.8,40.8,29.94,SSE,162,1.0,8.0,89,0.00,BKN,,0.00,WeatherDisplay:10.37,2013-01-11 11:00:00,
2013-01-11 11:30:00,44.9,42.1,29.93,South,179,1.0,7.0,90,0.00,SCT,,0.00,WeatherDisplay:10.37,2013-01-11 11:30:00,
2013-01-11 12:00:00,45.8,43.0,29.93,SSE,167,2.0,10.0,90,0.00,SCT,,0.00,WeatherDisplay:10.37,2013-01-11 12:00:00,
2013-01-11 12:30:00,45.8,43.1,29.91,SSE,153,2.0,8.0,90,0.00,SCT,,0.00,WeatherDisplay:10.37,2013-01-11 12:30:00,
2013-01-11 13:00:00,46.1,43.3,29.90,South,179,5.0,9.0,90,0.00,BKN,,0.00,WeatherDisplay:10.37,2013-01-11 13:00:00,
2013-01-11 13:30:00,46.5,43.4,29.89,SSE,158,3.0,9.0,89,0.00,-RA,,0.00,WeatherDisplay:10.37,2013-01-11 13:30:00,
2013-01-11 14:00:00,47.1,44.3,29.88,SSE,167,1.0,7.0,90,0.00,-RA,,0.00,WeatherDisplay:10.37,2013-01-11 14:00:00,
2013-01-11 14:30:00,47.6,44.8,29.86,SSE,148,2.0,8.0,90,0.00,BKN,,0.00,WeatherDisplay:10.37,2013-01-11 14:30:00,
2013-01-11 15:00:00,47.6,44.5,29.86,SSE,166,2.0,7.0,89,0.00,BKN,,0.00,WeatherDisplay:10.37,2013-01-11 15:00:00,
2013-01-11 15:30:00,47.6,44.5,29.85,SSE,166,1.0,10.0,89,0.00,-RA,,0.00,WeatherDisplay:10.37,2013-01-11 15:30:00,
2013-01-11 16:00:00,48.0,44.6,29.84,SSE,165,2.0,6.0,88,0.00,BKN,,0.00,WeatherDisplay:10.37,2013-01-11 16:00:00,
2013-01-11 16:30:00,46.7,43.3,29.84,SSE,156,1.0,5.0,88,0.00,BKN,,0.00,WeatherDisplay:10.37,2013-01-11 16:30:00,
2013-01-11 17:00:00,45.6,42.5,29.83,SSE,159,0.0,5.0,89,0.00,BKN,,0.00,WeatherDisplay:10.37,2013-01-11 17:00:00,
2013-01-11 17:30:00,45.1,42.1,29.83,SSE,150,1.0,4.0,89,0.00,BKN,,0.00,WeatherDisplay:10.37,2013-01-11 17:30:00,
2013-01-11 18:00:00,44.9,41.9,29.82,SE,144,1.0,5.0,89,0.00,BKN,,0.00,WeatherDisplay:10.37,2013-01-11 18:00:00,
2013-01-11 18:30:00,44.9,41.6,29.81,SSE,155,0.0,7.0,88,0.00,BKN,,0.00,WeatherDisplay:10.37,2013-01-11 18:30:00,
2013-01-11 19:00:00,44.0,40.4,29.80,SSE,148,0.0,5.0,87,0.00,SCT,,0.00,WeatherDisplay:10.37,2013-01-11 19:00:00,
2013-01-11 19:30:00,43.2,40.5,29.80,SE,137,1.0,3.0,90,0.00,SCT,,0.00,WeatherDisplay:10.37,2013-01-11 19:30:00,
2013-01-11 20:00:00,43.9,41.2,29.79,SSE,148,1.0,4.0,90,0.00,SCT,,0.00,WeatherDisplay:10.37,2013-01-11 20:00:00,
2013-01-11 20:30:00,43.7,40.7,29.78,SE,136,1.0,3.0,89,0.00,BKN,,0.00,WeatherDisplay:10.37,2013-01-11 20:30:00,
2013-01-11 21:00:00,43.1,40.1,29.78,SSE,156,1.0,5.0,89,0.00,SCT,,0.00,WeatherDisplay:10.37,2013-01-11 21:00:00,
2013-01-11 21:30:00,44.3,40.4,29.77,SSE,152,2.0,7.0,86,0.00,SCT,,0.00,WeatherDisplay:10.37,2013-01-11 21:30:00,
2013-01-11 22:00:00,42.9,39.0,29.77,SSE,155,0.0,4.0,86,0.00,SCT,,0.00,WeatherDisplay:10.37,2013-01-11 22:00:00,
2013-01-11 22:30:00,41.0,38.0,29.76,SSE,153,0.0,2.0,89,0.00,SCT,,0.00,WeatherDisplay:10.37,2013-01-11 22:30:00,
2013-01-11 23:00:00,41.1,38.4,29.76,NNE,14,0.0,2.0,90,0.00,BKN,,0.00,WeatherDisplay:10.37,2013-01-11 23:00:00,
2013-01-11 23:30:00,41.6,39.2,29.76,SSE,154,0.0,4.0,91,0.00,BKN,,0.00,WeatherDisplay:10.37,2013-01-11 23:30:00,